Tracking 35237 objects as of 6-Sep-2026
HD Live streaming from Space Station
objects crossing your sky now

YZ-1 R/B

Track YZ-1 R/B now!


NORAD ID: 43625
Int'l Code: 2018-072D
Launch date: September 19, 2018
Source: People's Republic of China (PRC)
Launch site: Xichang Space Center, China (XSC)

Note: This is a ROCKET BODY
Your satellite tracking list
Your tracking list is empty




NASA's NSSDC Master Catalog

Two Line Element Set (TLE):
1 43625U 18072D   26248.59750794  .00000002  00000-0  00000+0 0  9997
2 43625  56.5020  69.3208 0109603  67.4355 293.7751  1.77481406 51612
Source of the keplerian elements: AFSPC